Regional Weather Roundup
Issued by NWS

Home | Current Version | Previous Version | Text Only | Print | Product List | Glossary On
Versions: 1 2 3 4 5 6 7 8 9 10 11 12 13 14 15 16 17 18 19 20 21 22 23 24 25 26 27 28 29 30 31 32 33 34 35 36 37 38 39 40 41 42 43 44 45 46 47 48 49 50
000
ASUS43 KOAX 091602
RWRNE

WEATHER ROUNDUP FOR NEBRASKA
NATIONAL WEATHER SERVICE OMAHA NE
1000 AM CST TUE FEB 09 2016

NOTES: SATELLITE DATA IS BEING USED TO AUGMENT CLOUD COVER ABOVE
       12000 FEET.
       "FAIR" INDICATES FEW OR NO CLOUDS BELOW 12,000 FEET WITH NO
       SIGNIFICANT WEATHER AND/OR OBSTRUCTIONS TO VISIBILITY.

  * THESE STATIONS DO NOT REPORT WEATHER SUCH AS RAIN...SNOW OR FOG.

NEZ001>004-019>022-054>056-091700-
NEBRASKA PANHANDLE

CITY           SKY/WX    TMP DP  RH WIND       PRES   REMARKS
SCOTTSBLUFF    SUNNY     38  26  62 NW12      30.27R WCI  30
ALLIANCE       SUNNY     34  27  75 W14       30.20S WCI  25
CHADRON        CLOUDY    40  29  64 NW18G26   30.24R WCI  31
SIDNEY         SUNNY     37  27  67 NW15      30.25R WCI  28
$$

NEZ057>060-069>072-079>082-091700-
SOUTHWEST NEBRASKA

CITY           SKY/WX    TMP DP  RH WIND       PRES   REMARKS
NORTH PLATTE   CLOUDY    29  20  69 NW8       30.25R WCI  21
IMPERIAL         N/A     30  23  75 N7        30.27R WCI  23
MCCOOK         CLOUDY    31  20  63 NW7       30.27R WCI  24
$$

NEZ005>010-023>029-035>040-094-091700-
NORTH CENTRAL NEBRASKA

CITY           SKY/WX    TMP DP  RH WIND       PRES   REMARKS
VALENTINE      CLOUDY    24  15  68 NE6       30.29R WCI  17
BROKEN BOW     CLOUDY    26  18  71 N17G25    30.27R WCI  13
ORD            CLOUDY    24  11  57 N18G24    30.29R WCI  10
$$

NEZ041-046>049-061>064-073>077-083>087-091700-
SOUTH CENTRAL NEBRASKA

CITY           SKY/WX    TMP DP  RH WIND       PRES   REMARKS
GRAND ISLAND   CLOUDY    23  12  62 N17       30.30R WCI   9
HASTINGS       CLOUDY    26  16  65 N16       30.27R WCI  14
$$

NEZ011>018-030>034-042>045-091700-
NORTHEAST NEBRASKA

CITY           SKY/WX    TMP DP  RH WIND       PRES   REMARKS
NORFOLK        SUNNY     18   7  62 N22G29    30.26R WCI   1
COLUMBUS *     SUNNY     18   1  49 NW15G22   30.28R WCI   3
TEKAMAH        MOSUNNY   17   4  56 N25G31    30.26R WCI  -1
$$

NEZ050>053-065>068-078-088>093-091700-
SOUTHEAST NEBRASKA

CITY           SKY/WX    TMP DP  RH WIND       PRES   REMARKS
LINCOLN        SUNNY     20   8  60 N22       30.28R WCI   3
OMAHA EPPLEY   MOSUNNY   15   4  61 N30G40    30.23R WCI  -5
FALLS CITY     SUNNY     20   7  57 NW21G30   30.22R WCI   4
$$

NEZ044-045-051>053-067-091700-
OMAHA AREA

CITY           SKY/WX    TMP DP  RH WIND       PRES   REMARKS
OMAHA EPPLEY   MOSUNNY   15   4  61 N30G40    30.23R WCI  -5
$$



USA.gov is the U.S. government's official web portal to all federal, state and local government web resources and services.